Theta_e
291 291 291 292 293 294 295 295 296 297 298 299 301 301 301 302 303 305 307 312 316 317 321 325 331 339 342 343 344 344 344 344 343 342 342 342 342 342 341 340 340 340 339
290 291 291 292 292 292 293 294 294 295 297 298 299 300 301 302 303 304 306 307 313 316 319 322 324 328 336 341 343 344 344 343 344 342 341 341 341 341 341 340 339 339 338
290 290 290 290 291 292 293 294 295 296 295 297 296 298 299 300 300 301 303 305 309 314 320 326 326 329 331 337 339 342 344 343 342 342 341 340 340 340 340 339 339 338 338
291 289 289 289 291 292 293 292 293 294 294 294 295 295 296 298 298 299 301 302 305 308 312 316 318 320 322 325 331 337 340 343 342 341 341 341 339 339 339 339 339 338 338
291 289 289 289 291 291 291 291 291 292 292 293 294 294 294 295 296 298 299 300 301 303 306 314 317 316 317 320 322 325 333 337 340 340 339 340 339 339 339 339 339 338 338
290 288 288 289 290 288 288 288 289 290 292 292 293 293 292 294 295 295 296 300 301 302 304 306 305 307 310 314 317 320 324 333 336 338 338 338 339 339 338 338 339 338 337
289 288 287 287 288 287 287 288 289 289 290 292 290 290 290 292 292 293 295 297 298 301 301 303 304 307 307 310 313 316 320 328 333 336 337 338 338 338 338 338 338 338 338
288 288 287 287 286 286 286 288 289 289 290 291 289 289 286 288 292 292 292 293 294 297 299 303 301 301 302 305 305 312 315 321 325 327 332 336 338 338 338 338 337 338 338
287 287 286 285 285 286 285 287 289 289 287 290 290 289 286 284 287 289 291 291 291 292 293 297 297 296 296 299 301 303 307 313 318 320 322 327 333 335 338 337 337 337 338
285 286 285 284 284 285 286 287 288 287 286 284 289 290 290 289 285 284 287 289 290 290 290 293 294 294 295 294 296 297 300 304 308 312 315 318 324 331 333 335 336 336 337
284 284 284 284 284 286 286 286 286 286 286 286 286 287 287 287 288 286 283 286 289 288 288 291 291 293 292 292 292 294 298 302 304 306 309 312 316 322 330 334 334 333 334
281 282 283 283 284 284 284 284 284 283 284 285 286 287 286 285 285 285 284 285 285 288 289 290 290 291 292 291 291 293 296 299 302 304 306 308 311 315 321 326 331 333 334
279 280 281 282 283 283 284 284 284 284 284 283 284 284 286 286 287 286 285 284 284 287 289 290 290 289 289 288 289 291 293 297 300 301 304 305 308 311 314 320 324 326 327
280 282 281 282 282 283 283 283 283 284 283 282 282 283 283 284 285 285 284 283 281 283 285 286 286 286 285 287 289 291 290 294 297 301 303 305 306 308 310 314 318 321 323
281 282 282 281 282 282 282 283 282 281 281 281 281 283 283 284 285 285 285 284 282 279 281 286 287 287 284 285 287 287 287 290 294 298 300 301 304 307 309 311 314 318 321
280 281 280 281 281 281 282 281 281 281 281 281 282 281 282 283 282 283 284 284 284 283 280 286 288 290 285 285 287 286 286 288 290 294 297 298 300 303 309 310 312 315 318
280 279 280 280 280 280 281 281 281 280 279 279 281 281 281 282 282 283 284 285 285 285 282 285 288 288 286 285 285 285 286 285 286 289 294 296 297 298 300 307 311 312 315
280 280 280 280 280 281 280 279 279 280 279 279 278 278 279 282 281 282 281 282 284 285 284 282 286 288 284 285 284 283 284 284 284 286 292 293 295 297 297 298 300 303 309
279 280 281 280 280 280 280 281 281 280 272 275 275 276 277 278 279 280 278 282 283 284 284 283 283 286 283 282 283 283 283 282 283 285 287 288 291 293 295 296 296 296 297
279 280 280 280 279 274 274 273 274 270 267 268 271 274 277 277 279 279 278 280 281 280 283 284 284 285 284 283 281 280 281 281 281 283 284 285 287 288 291 292 292 293 294
280 273 271 270 270 270 273 271 271 269 267 267 269 272 274 278 282 282 281 281 281 281 281 282 283 282 283 281 281 280 280 279 280 279 280 281 281 282 283 286 287 291 292
270 268 269 268 270 274 280 282 280 268 268 271 271 272 275 276 279 281 282 283 284 281 280 280 281 281 282 281 280 280 279 278 280 278 278 279 278 280 280 282 287 288 288
269 269 269 269 270 270 280 282 283 273 269 270 272 275 276 278 276 277 280 282 281 281 282 281 278 279 278 279 279 278 278 278 278 276 277 276 276 277 279 280 285 287 287
271 272 272 273 274 276 281 282 283 279 276 275 275 275 274 276 276 279 278 277 278 278 278 280 280 280 280 280 279 279 278 276 276 276 276 275 275 275 277 278 282 286 286
273 273 275 274 274 276 280 281 281 279 278 276 276 276 276 276 280 283 277 275 276 276 279 280 280 281 281 282 281 278 276 273 275 274 275 274 274 274 274 275 277 282 285
275 275 276 275 275 275 279 281 281 278 277 276 276 276 279 279 281 281 278 275 273 274 275 275 275 276 276 276 278 274 273 269 270 271 273 271 273 273 275 274 275 275 276
Wind_Speed
3 3 4 3 3 4 4 4 4 4 5 6 7 7 7 7 6 5 4 12 16 20 22 21 21 23 24 25 26 25 24 24 24 23 23 23 23 24 25 25 23 23 23
2 3 4 4 4 4 4 4 4 4 4 4 6 7 8 8 7 8 6 8 16 18 21 22 23 23 25 24 27 27 28 27 26 26 26 25 25 25 26 26 25 25 26
3 3 3 4 4 4 6 5 5 4 4 4 5 5 6 7 8 9 8 7 10 14 16 18 20 21 22 23 26 28 28 29 29 28 27 26 26 27 27 28 27 27 27
3 3 3 3 4 4 4 4 4 5 5 4 4 4 4 6 8 10 8 7 7 8 12 19 22 23 24 24 26 27 28 27 30 31 31 29 28 28 29 28 28 28 27
4 2 2 3 4 3 3 4 4 4 5 4 6 5 5 7 8 7 9 10 10 9 8 14 16 16 20 24 25 26 27 28 28 29 32 33 32 30 27 27 28 29 29
4 3 3 4 3 2 2 3 3 3 4 5 8 8 6 7 5 4 5 7 7 9 9 7 5 8 19 23 25 26 28 30 27 28 32 32 31 29 26 30 29 29 30
3 3 3 4 4 3 4 5 3 5 4 5 6 5 5 6 5 3 3 4 5 8 6 6 5 7 8 22 25 25 25 24 27 26 28 32 31 30 33 32 29 30 32
5 4 4 4 5 4 5 5 6 5 3 4 4 5 6 5 3 6 3 4 6 4 8 9 9 10 10 9 13 26 27 26 22 23 25 28 29 33 33 32 34 33 32
5 4 5 4 4 4 3 5 6 7 5 5 5 3 5 4 12 3 8 5 9 9 5 7 9 9 11 10 13 16 23 24 24 20 21 23 25 24 32 39 38 33 31
4 5 4 4 4 3 5 5 5 6 5 6 4 3 6 7 6 10 3 9 10 5 7 7 9 10 9 9 14 16 22 25 23 20 17 20 22 25 19 15 19 23 26
4 4 4 4 4 4 5 5 6 6 5 5 5 5 6 6 8 7 13 11 10 7 6 9 9 10 9 8 10 13 19 21 23 21 19 18 19 21 18 27 28 29 27
2 3 3 2 3 5 5 4 5 6 5 6 6 7 6 6 6 7 10 13 14 13 9 10 9 9 9 7 10 16 19 20 20 20 20 20 21 20 21 21 21 20 25
1 3 3 3 3 5 5 5 5 6 6 6 8 7 7 7 7 8 10 11 12 12 10 11 9 7 8 5 6 12 14 18 17 16 18 19 21 23 23 24 24 23 21
2 4 3 4 5 6 6 6 5 4 6 7 9 8 7 7 7 8 8 9 14 14 12 14 4 5 3 5 5 13 7 13 15 15 15 16 18 23 26 26 26 24 23
3 3 4 4 5 6 6 5 4 6 6 7 8 8 7 7 7 8 8 9 10 14 16 8 9 3 3 3 5 5 5 11 15 17 17 17 18 20 27 27 27 25 24
5 4 4 5 6 6 5 5 5 6 7 6 7 9 9 7 8 8 8 9 9 12 17 8 11 12 6 4 5 4 4 10 11 16 17 20 22 24 17 23 25 25 24
4 4 5 6 6 5 4 5 6 7 8 9 8 8 10 9 8 7 7 8 9 10 14 13 10 8 6 6 5 3 3 4 4 11 15 17 20 21 25 11 21 22 24
4 5 6 6 5 4 5 5 6 6 6 8 10 9 10 6 9 8 7 10 9 9 10 17 12 10 6 3 5 5 3 3 4 7 12 14 17 17 21 25 25 21 4
5 5 6 5 5 5 5 6 5 4 4 6 7 7 7 7 8 7 6 8 7 7 8 9 12 5 3 2 3 4 2 3 3 7 9 11 14 18 19 21 24 26 22
5 6 5 5 5 3 5 5 5 4 4 4 5 6 6 6 7 8 8 9 8 8 8 8 8 6 4 1 2 2 4 2 3 1 5 6 9 14 18 18 20 18 20
5 4 4 4 5 4 4 5 5 5 4 4 4 5 5 7 12 11 6 8 7 7 7 7 6 2 3 2 2 2 3 3 1 2 3 2 4 4 7 11 11 14 14
6 5 6 4 6 5 11 12 8 4 4 5 5 5 5 6 9 14 14 13 10 8 7 5 5 5 5 3 3 2 2 3 3 2 3 3 4 4 4 5 11 12 11
4 6 6 5 7 6 13 12 13 3 4 5 5 5 5 4 6 6 10 12 8 11 12 7 7 4 5 3 4 3 2 2 2 2 3 3 4 3 2 4 10 6 7
6 7 6 6 7 7 13 13 12 5 4 6 5 5 5 5 6 6 5 6 6 5 5 5 6 6 4 4 4 3 2 2 2 1 1 1 2 2 4 4 7 6 5
6 7 6 6 7 8 13 13 11 5 6 6 5 6 5 5 8 11 2 5 6 4 7 11 9 8 10 12 8 3 2 2 2 1 1 1 1 2 1 2 3 8 6
8 6 8 7 8 9 13 15 12 4 7 5 5 6 8 8 10 10 5 3 5 4 5 6 6 6 6 6 9 4 2 2 1 2 2 1 2 3 1 1 2 2 2
Wind_Direction
1 352 349 346 345 344 344 339 332 329 330 331 328 323 319 311 307 304 301 298 301 303 297 299 297 294 277 258 248 240 229 226 223 218 219 219 216 213 211 209 198 199 202
357 5 349 344 340 338 325 322 321 325 327 331 327 327 325 321 319 314 311 308 303 300 301 296 291 291 288 280 265 251 243 230 226 225 218 218 217 215 214 209 206 204 201
29 8 348 341 327 327 329 337 331 327 321 321 305 315 309 317 316 314 311 306 305 300 291 292 295 296 292 290 280 273 252 245 235 228 225 220 218 218 216 212 211 210 206
23 359 351 339 326 331 338 337 339 328 313 309 295 286 297 306 300 296 298 294 291 296 299 293 289 291 294 296 296 288 276 261 247 238 227 220 219 217 217 217 216 213 211
337 14 355 332 346 0 4 352 336 329 317 308 305 304 294 283 279 285 288 295 294 291 291 295 302 309 305 300 295 289 285 280 269 258 243 228 216 214 217 220 218 217 215
340 360 351 354 354 360 359 335 316 316 303 309 314 302 284 272 260 271 282 290 296 292 290 295 315 310 305 298 293 288 283 280 275 267 255 249 231 211 214 220 219 218 221
11 356 357 350 352 357 352 337 312 331 329 331 324 312 279 267 269 269 288 295 302 303 296 286 278 289 295 296 292 288 282 300 292 274 265 252 244 218 213 214 222 219 220
357 348 7 358 357 350 346 341 346 338 322 358 356 305 329 329 13 304 308 324 317 323 320 315 318 313 304 295 281 286 285 285 296 312 300 273 252 248 222 217 218 219 218
5 30 30 12 351 352 336 335 333 341 333 340 355 341 324 311 335 299 324 315 334 314 322 325 315 309 303 293 293 296 294 293 290 290 304 310 289 274 249 222 217 219 218
22 34 14 2 346 327 334 324 321 324 328 310 326 305 292 309 304 311 316 322 292 307 296 304 301 294 294 292 290 286 292 296 296 292 290 298 302 289 257 267 229 230 234
26 15 21 17 4 346 329 321 327 326 314 312 316 308 295 280 276 269 290 304 307 296 299 298 295 293 283 283 285 287 292 296 295 295 296 293 294 297 297 244 229 232 235
1 346 354 343 321 323 320 318 314 305 301 305 298 283 271 276 286 284 292 295 296 303 296 284 290 288 286 276 278 290 295 295 296 297 295 292 286 276 274 274 272 256 236
291 323 309 333 335 321 310 298 291 289 292 281 280 281 285 282 288 286 285 290 287 293 294 283 273 280 276 274 278 289 294 296 302 298 292 282 280 275 269 262 259 259 260
254 284 290 308 308 297 288 278 271 269 284 280 276 270 269 266 263 265 268 288 291 286 284 278 290 255 278 270 289 303 299 303 317 311 313 299 291 270 259 254 252 249 249
278 276 280 290 283 272 267 268 274 274 269 268 265 260 261 263 257 266 265 262 268 290 286 291 299 251 267 268 278 281 303 307 315 339 340 333 320 296 258 249 249 246 245
255 264 283 270 262 259 258 262 267 266 263 270 277 270 264 266 265 263 262 259 254 266 281 290 286 295 278 271 263 273 279 309 314 331 350 354 352 358 293 248 245 243 242
259 276 271 270 268 266 265 264 266 281 279 279 281 278 278 271 266 268 268 265 261 260 271 284 281 285 276 271 263 243 276 293 299 331 342 354 2 9 16 333 246 244 243
258 262 265 265 268 271 266 272 270 269 292 296 295 289 283 282 280 276 273 274 269 269 271 283 286 284 244 251 274 289 280 269 292 317 337 356 360 5 26 29 29 38 68
265 264 261 261 269 266 274 270 262 270 278 281 290 289 285 295 287 288 282 292 285 278 271 270 283 271 266 279 304 260 10 295 271 301 334 358 6 5 19 35 35 38 33
258 260 257 258 268 271 273 277 269 266 290 280 289 286 287 283 291 298 293 292 296 300 291 277 280 280 261 295 273 311 277 256 288 294 307 350 4 1 20 25 39 34 38
252 265 279 283 278 263 259 265 250 244 260 287 283 287 278 283 295 303 307 307 302 304 306 302 290 281 276 297 304 353 296 306 314 359 306 357 0 353 1 19 31 32 44
265 271 268 251 273 268 280 283 285 224 250 263 282 286 280 280 296 311 314 319 333 323 325 313 316 310 304 297 319 313 308 336 332 35 341 339 24 345 352 8 15 32 38
243 257 263 255 260 254 271 277 281 232 244 258 264 273 294 290 299 295 312 324 316 324 336 332 316 323 310 351 306 300 300 307 290 4 350 323 357 323 8 345 360 20 36
239 251 249 247 257 263 274 277 279 270 266 266 255 254 247 278 294 303 323 314 311 310 317 333 336 319 282 305 317 307 316 314 292 340 15 311 4 321 338 357 347 8 79
242 244 246 250 249 261 268 273 277 264 263 266 268 264 256 262 279 310 305 308 310 296 320 332 333 335 351 353 350 304 329 28 316 326 305 330 358 274 10 314 337 354 8
250 244 252 238 242 259 266 270 268 245 259 258 262 264 267 270 289 292 285 284 307 292 317 331 330 331 338 340 11 33 352 3 306 325 287 32 331 311 348 70 1 16 359